sat.trackr.live / text

‹ back to catalog

PRAETORIAN SDA_620

NORAD 65583 · 2025-203U

PAYLOAD ACTIVE UNKNOWN

§ Identity

Operator
Country
US
Launch date
2025-09-10
Launch site
AFWTR
Launch vehicle
Mass (kg)
RCS (m²)

Purposes: military

External: N2YO · Heavens-Above · Gunter

§ Orbital elements

Epoch: 2026-05-25T02:50:52.738944Z

Period
104.08 min
Inclination
81.3050°
Eccentricity
0.0006560
Mean motion
13.83616027 rev/d
Perigee alt
946.3 km
Apogee alt
955.9 km
Semi-major
7,329.2 km
B*
5.6431e-6
RAAN
32.1490°
Arg perigee
250.9717°
Mean anomaly
109.0729°
Rev number
3,550

§ Raw data

PRAETORIAN SDA_6201 65583U 25203U   26145.11866596  .00000018  00000+0  56431-5 0  99912 65583  81.3050  32.1490 0006560 250.9717 109.0729 13.83616027 35501

JSON: /api/v1/satellites/65583 · /tle

For live sub-satellite position, see the globe view (requires WebGL).

§ Visibility from observer

Set your observer location to see the next 7 days of passes ≥ 10°. The values pass through the URL so the page stays shareable.

No JS? Fill the form by hand. The geolocation button needs JavaScript.